#�ϑ�����,���ϕ���,���ϕ���,�ő啗��,�ő啗����������,�ő�u�ԕ���,�ő�u�ԕ�����������
#(�N����),(m/s)   ,(16����),(m/s)   ,(16����)        ,(m/s)       ,(16����)            
2015/3/8 0:01,1.2,12,1.2,12,1.3,13
2015/3/8 0:02,1.2,12,1.2,12,1.3,12
2015/3/8 0:03,1.2,12,1.2,12,1.8,10
2015/3/8 0:04,1.2,11,1.2,12,1.6,11
2015/3/8 0:05,1.2,11,1.2,12,1.5,10
2015/3/8 0:06,1.1,11,1.2,12,0.9,9
2015/3/8 0:07,1,11,1.1,12,1.1,10
2015/3/8 0:08,1,11,1,12,1,9
2015/3/8 0:09,0.9,10,1,12,0.8,8
2015/3/8 0:10,0.8,10,0.9,12,1.1,8
2015/3/8 0:11,0.8,10,0.8,12,1,9
2015/3/8 0:12,0.7,9,0.8,12,0.8,9
2015/3/8 0:13,0.6,9,0.7,12,0.3,10
2015/3/8 0:14,0.5,9,0.6,11,0,10
2015/3/8 0:15,0.4,9,0.5,11,0.8,8
2015/3/8 0:16,0.4,9,0.4,11,0.9,7
2015/3/8 0:17,0.4,9,0.5,11,1,9
2015/3/8 0:18,0.4,9,0.4,11,0.3,10
2015/3/8 0:19,0.4,9,0.4,10,0.1,10
2015/3/8 0:20,0.3,9,0.4,10,0.6,3
2015/3/8 0:21,0.3,8,0.3,10,0.4,4
2015/3/8 0:22,0.3,8,0.3,9,0.6,11
2015/3/8 0:23,0.3,8,0.3,9,1.1,11
2015/3/8 0:24,0.5,9,0.5,9,1.8,11
2015/3/8 0:25,0.5,9,0.5,9,1.5,10
2015/3/8 0:26,0.5,9,0.5,9,0.8,7
2015/3/8 0:27,0.5,8,0.5,9,0.9,8
2015/3/8 0:28,0.5,7,0.5,9,0.4,1
2015/3/8 0:29,0.6,6,0.6,6,1.4,16
2015/3/8 0:30,0.5,7,0.6,6,0.8,13
2015/3/8 0:31,0.6,9,0.6,6,0.8,8
2015/3/8 0:32,0.6,8,0.6,6,1,8
2015/3/8 0:33,0.5,7,0.6,6,0.6,8
2015/3/8 0:34,0.4,7,0.5,6,0.1,12
2015/3/8 0:35,0.3,8,0.4,6,0.6,4
2015/3/8 0:36,0.3,7,0.3,6,0.6,4
2015/3/8 0:37,0.3,7,0.3,6,0.6,4
2015/3/8 0:38,0.3,9,0.3,6,0.4,10
2015/3/8 0:39,0.3,9,0.3,6,1,11
2015/3/8 0:40,0.4,9,0.4,8,1.8,9
2015/3/8 0:41,0.4,9,0.4,9,1.1,7
2015/3/8 0:42,0.4,9,0.4,8,0.6,9
2015/3/8 0:43,0.4,9,0.4,7,1,8
2015/3/8 0:44,0.5,8,0.5,9,1.5,9
2015/3/8 0:45,0.6,8,0.6,8,1.3,9
2015/3/8 0:46,0.6,9,0.6,8,1,9
2015/3/8 0:47,0.7,9,0.7,9,1.3,11
2015/3/8 0:48,0.8,9,0.8,9,1.4,11
2015/3/8 0:49,0.8,9,0.8,9,1.5,11
2015/3/8 0:50,0.9,10,0.9,10,2,11
2015/3/8 0:51,1,10,1,10,1.9,12
2015/3/8 0:52,1.1,10,1.1,10,1.6,12
2015/3/8 0:53,1.2,11,1.2,11,1.9,11
2015/3/8 0:54,1.3,11,1.3,11,2,11
2015/3/8 0:55,1.3,11,1.3,11,1.8,11
2015/3/8 0:56,1.4,11,1.4,11,2,11
2015/3/8 0:57,1.5,11,1.5,11,1.9,10
2015/3/8 0:58,1.5,11,1.5,11,1.8,11
2015/3/8 0:59,1.5,11,1.5,11,2,10
2015/3/8 1:00,1.4,11,1.5,11,1.4,10
2015/3/8 1:01,1.4,11,1.4,11,1.1,11
2015/3/8 1:02,1.3,11,1.4,11,0.8,12
2015/3/8 1:03,1.1,11,1.3,11,0.5,11
2015/3/8 1:04,1,11,1.1,11,0.6,15
2015/3/8 1:05,0.9,12,1,11,1,14
2015/3/8 1:06,0.8,12,0.9,11,0.8,15
2015/3/8 1:07,0.7,13,0.8,11,0.8,15
2015/3/8 1:08,0.6,13,0.7,11,0.9,15
2015/3/8 1:09,0.6,13,0.6,11,1.1,13
2015/3/8 1:10,0.6,14,0.6,11,1,13
2015/3/8 1:11,0.5,14,0.6,11,1,14
2015/3/8 1:12,0.5,14,0.5,11,0.4,13
2015/3/8 1:13,0.6,13,0.6,11,1.5,11
2015/3/8 1:14,0.7,13,0.7,11,1.5,10
2015/3/8 1:15,0.7,12,0.7,12,1.3,10
2015/3/8 1:16,0.7,12,0.7,12,0.9,10
2015/3/8 1:17,0.8,12,0.8,12,1.6,14
2015/3/8 1:18,0.8,12,0.8,12,2.2,15
2015/3/8 1:19,0.9,12,0.9,12,1.5,16
2015/3/8 1:20,0.9,12,0.9,12,1.6,16
2015/3/8 1:21,0.9,13,0.9,12,1.6,15
2015/3/8 1:22,1,13,1,13,1,14
2015/3/8 1:23,1,13,1,13,0.9,14
2015/3/8 1:24,0.9,13,1,13,0.8,12
2015/3/8 1:25,0.9,14,0.9,13,0.9,12
2015/3/8 1:26,0.9,14,0.9,13,0.9,12
2015/3/8 1:27,0.8,14,0.9,13,0.5,13
2015/3/8 1:28,0.7,14,0.8,13,0.5,15
2015/3/8 1:29,0.6,14,0.7,13,0.8,15
2015/3/8 1:30,0.6,14,0.6,13,1.1,16
2015/3/8 1:31,0.6,14,0.6,13,1.1,2
2015/3/8 1:32,0.6,14,0.6,13,1,16
2015/3/8 1:33,0.6,15,0.6,13,1.5,16
2015/3/8 1:34,0.6,15,0.6,14,1.4,16
2015/3/8 1:35,0.7,15,0.7,14,1.5,16
2015/3/8 1:36,0.7,16,0.7,14,1,15
2015/3/8 1:37,0.7,16,0.7,14,0.9,13
2015/3/8 1:38,0.8,16,0.8,16,1.5,15
2015/3/8 1:39,0.9,16,0.9,16,1.6,15
2015/3/8 1:40,0.9,15,0.9,16,1.6,14
2015/3/8 1:41,0.9,15,0.9,16,0.8,13
2015/3/8 1:42,0.9,14,0.9,16,0.8,12
2015/3/8 1:43,0.9,14,0.9,16,0.9,12
2015/3/8 1:44,0.9,14,0.9,16,1.4,14
2015/3/8 1:45,1,14,1,14,2.4,14
2015/3/8 1:46,1.1,14,1.1,14,2.1,13
2015/3/8 1:47,1.2,13,1.2,13,2.2,10
2015/3/8 1:48,1.2,13,1.2,13,2,10
2015/3/8 1:49,1.2,12,1.2,13,1,10
2015/3/8 1:50,1.1,12,1.2,13,0.9,12
2015/3/8 1:51,1.1,12,1.1,13,2,15
2015/3/8 1:52,1.1,13,1.1,13,1.8,14
2015/3/8 1:53,1.2,13,1.2,13,1.9,14
2015/3/8 1:54,1.2,13,1.2,13,2.1,13
2015/3/8 1:55,1.2,12,1.2,13,1.8,11
2015/3/8 1:56,1.1,13,1.2,13,1.5,12
2015/3/8 1:57,1,13,1.1,13,1.4,12
2015/3/8 1:58,0.9,13,1,13,0.3,13
2015/3/8 1:59,0.9,13,0.9,12,1.5,10
2015/3/8 2:00,1,13,1,13,1.9,13
2015/3/8 2:01,0.9,13,1,13,0.9,13
2015/3/8 2:02,0.9,13,0.9,13,0.1,14
2015/3/8 2:03,0.8,12,0.9,13,1.3,8
2015/3/8 2:04,0.7,13,0.8,13,1,3
2015/3/8 2:05,0.6,13,0.7,12,1.1,4
2015/3/8 2:06,0.5,12,0.6,13,0.8,16
2015/3/8 2:07,0.5,12,0.5,13,1.1,6
2015/3/8 2:08,0.5,13,0.5,13,1.1,15
2015/3/8 2:09,0.5,14,0.6,13,1.9,16
2015/3/8 2:10,0.6,15,0.6,13,3.2,15
2015/3/8 2:11,0.7,15,0.7,13,2.5,15
2015/3/8 2:12,0.8,14,0.8,13,2.2,15
2015/3/8 2:13,0.9,14,0.9,14,2.1,12
2015/3/8 2:14,0.9,13,0.9,14,1.1,11
2015/3/8 2:15,0.9,13,0.9,14,1.8,12
2015/3/8 2:16,1,13,1,13,2,14
2015/3/8 2:17,1.1,13,1.1,13,3.5,16
2015/3/8 2:18,1.3,13,1.3,13,2.9,15
2015/3/8 2:19,1.3,13,1.3,13,1.6,14
2015/3/8 2:20,1.2,13,1.3,13,1.4,16
2015/3/8 2:21,1.1,13,1.2,13,1.3,10
2015/3/8 2:22,1.2,13,1.2,13,3.7,16
2015/3/8 2:23,1.2,13,1.2,13,2.9,15
2015/3/8 2:24,1.3,14,1.3,13,3.3,16
2015/3/8 2:25,1.4,14,1.4,14,3.2,15
2015/3/8 2:26,1.5,14,1.5,14,2.5,11
2015/3/8 2:27,1.5,14,1.5,14,2.7,13
2015/3/8 2:28,1.6,14,1.6,14,3.5,13
2015/3/8 2:29,1.6,14,1.6,14,2.6,14
2015/3/8 2:30,1.7,14,1.7,14,2.5,1
2015/3/8 2:31,1.8,14,1.8,14,3.1,10
2015/3/8 2:32,1.7,14,1.8,14,3.1,15
2015/3/8 2:33,1.7,14,1.8,14,2.4,16
2015/3/8 2:34,1.6,14,1.7,14,3.5,15
2015/3/8 2:35,1.7,15,1.7,14,5.8,1
2015/3/8 2:36,1.9,15,1.9,15,6.3,15
2015/3/8 2:37,2,16,2,16,5.7,15
2015/3/8 2:38,2,16,2,16,3.6,2
2015/3/8 2:39,2,1,2,16,3.3,3
2015/3/8 2:40,1.9,16,2,16,1.8,16
2015/3/8 2:41,1.8,1,1.9,16,1.8,3
2015/3/8 2:42,1.7,1,1.8,16,2,2
2015/3/8 2:43,1.7,1,1.8,16,2.1,16
2015/3/8 2:44,1.6,1,1.7,16,1.4,5
2015/3/8 2:45,1.4,1,1.6,16,2.1,7
2015/3/8 2:46,1.2,1,1.4,16,2,6
2015/3/8 2:47,1,1,1.2,16,2,12
2015/3/8 2:48,1,1,1,16,3.2,14
2015/3/8 2:49,1.1,1,1.1,1,5,3
2015/3/8 2:50,1.2,1,1.2,16,4.3,16
2015/3/8 2:51,1.4,1,1.4,1,3.5,16
2015/3/8 2:52,1.5,1,1.5,1,3.2,1
2015/3/8 2:53,1.9,1,1.9,1,7.7,16
2015/3/8 2:54,2.2,1,2.2,1,7.1,1
2015/3/8 2:55,2.5,1,2.5,1,8.1,1
2015/3/8 2:56,2.7,1,2.7,1,6.8,2
2015/3/8 2:57,3.1,1,3.1,1,7.6,2
2015/3/8 2:58,3.5,1,3.5,1,9.2,3
2015/3/8 2:59,3.6,1,3.6,1,6.8,15
2015/3/8 3:00,3.7,1,3.7,1,5.2,2
2015/3/8 3:01,3.7,2,3.7,1,5.1,3
2015/3/8 3:02,3.7,2,3.7,1,5.4,3
2015/3/8 3:03,3.4,2,3.7,1,4.4,16
2015/3/8 3:04,3.7,2,3.7,1,9.4,16
2015/3/8 3:05,3.6,2,3.7,1,6,1
2015/3/8 3:06,3.5,2,3.6,1,5.7,2
2015/3/8 3:07,3.2,2,3.4,1,2.6,3
2015/3/8 3:08,3,2,3.2,1,7.5,1
2015/3/8 3:09,2.9,2,3,1,7.8,1
2015/3/8 3:10,3.1,2,3.1,1,7.7,1
2015/3/8 3:11,3.3,2,3.4,2,8.4,1
2015/3/8 3:12,3.5,2,3.5,2,6.9,2
2015/3/8 3:13,3.6,1,3.6,2,5.2,1
2015/3/8 3:14,3.4,1,3.6,2,9.2,16
2015/3/8 3:15,3.6,1,3.6,2,9.8,15
2015/3/8 3:16,3.7,1,3.7,1,6.4,16
2015/3/8 3:17,4.1,1,4.1,1,12.8,16
2015/3/8 3:18,4.1,1,4.2,1,7.5,16
2015/3/8 3:19,4.3,1,4.3,1,9.4,1
2015/3/8 3:20,4.4,16,4.4,16,8.3,16
2015/3/8 3:21,4.1,16,4.3,16,6.3,2
2015/3/8 3:22,4.3,1,4.3,16,9.3,16
2015/3/8 3:23,4.6,1,4.6,1,11.9,16
2015/3/8 3:24,4.4,16,4.6,1,6.4,15
2015/3/8 3:25,4.2,1,4.4,1,6.5,1
2015/3/8 3:26,4.4,16,4.4,1,10,15
2015/3/8 3:27,4.5,16,4.5,1,11,16
2015/3/8 3:28,4.8,16,4.8,16,13,1
2015/3/8 3:29,5.2,16,5.2,16,14.2,16
2015/3/8 3:30,5.1,16,5.2,16,6.9,16
2015/3/8 3:31,5.2,16,5.3,16,7.1,16
2015/3/8 3:32,4.9,16,5.2,16,5,16
2015/3/8 3:33,4.8,16,4.9,16,8.6,1
2015/3/8 3:34,5,16,5,16,11.3,16
2015/3/8 3:35,5.5,16,5.5,16,13.4,16
2015/3/8 3:36,5.6,16,5.6,16,11,1
2015/3/8 3:37,5.5,16,5.6,16,10.2,16
2015/3/8 3:38,5.5,16,5.5,16,12.6,16
2015/3/8 3:39,5.2,16,5.5,16,13.6,16
2015/3/8 3:40,5.3,16,5.3,16,9.8,16
2015/3/8 3:41,5.5,16,5.5,16,10,16
2015/3/8 3:42,6.1,16,6.1,16,14,16
2015/3/8 3:43,6.1,16,6.1,16,8.3,16
2015/3/8 3:44,5.9,16,6.2,16,8.7,1
2015/3/8 3:45,5.7,16,5.9,16,10.6,16
2015/3/8 3:46,5.5,16,5.8,16,12.3,16
2015/3/8 3:47,5.7,16,5.8,16,14.1,1
2015/3/8 3:48,5.6,16,5.7,16,11.4,15
2015/3/8 3:49,5.7,16,5.7,16,11.3,15
2015/3/8 3:50,5.6,16,5.7,16,6.9,16
2015/3/8 3:51,5.5,16,5.5,16,11.4,16
2015/3/8 3:52,5.1,16,5.6,16,11,15
2015/3/8 3:53,5.4,16,5.4,16,14.8,15
2015/3/8 3:54,5.6,16,5.7,16,10,1
2015/3/8 3:55,5.6,16,5.6,16,10.6,16
2015/3/8 3:56,5.8,16,5.8,16,12.6,16
2015/3/8 3:57,5.8,16,5.8,16,12.5,16
2015/3/8 3:58,5.9,16,6,16,12.6,16
2015/3/8 3:59,5.8,16,5.9,16,8.1,15
2015/3/8 4:00,5.9,16,5.9,16,9.9,16
2015/3/8 4:01,6,16,6,16,9.4,1
2015/3/8 4:02,6.1,16,6.1,16,11.1,1
2015/3/8 4:03,6.2,16,6.2,16,12.4,1
2015/3/8 4:04,6.4,16,6.4,16,12.3,16
2015/3/8 4:05,6.5,16,6.5,16,9.4,16
2015/3/8 4:06,6.4,16,6.5,16,8.4,16
2015/3/8 4:07,6.1,16,6.3,16,11.4,16
2015/3/8 4:08,6.1,16,6.1,16,12.5,1
2015/3/8 4:09,6.2,16,6.2,16,10.7,16
2015/3/8 4:10,6.3,16,6.4,16,11,16
2015/3/8 4:11,6.5,16,6.5,16,12.1,16
2015/3/8 4:12,6.4,16,6.5,16,8.6,16
2015/3/8 4:13,6.2,16,6.4,16,9.1,16
2015/3/8 4:14,5.9,16,6.1,16,11.1,15
2015/3/8 4:15,5.8,16,5.9,16,10.9,16
2015/3/8 4:16,6.1,16,6.1,16,13.3,16
2015/3/8 4:17,6.2,16,6.3,16,11.4,1
2015/3/8 4:18,6.1,16,6.2,16,11.5,15
2015/3/8 4:19,6.1,16,6.1,16,11.4,15
2015/3/8 4:20,5.9,16,6.1,16,9.2,16
2015/3/8 4:21,5.6,16,5.9,16,7.7,15
2015/3/8 4:22,5.7,16,5.7,16,10.6,1
2015/3/8 4:23,5.5,16,5.6,16,9,15
2015/3/8 4:24,5.3,16,5.5,16,9.2,16
2015/3/8 4:25,5.3,16,5.4,16,8.4,15
2015/3/8 4:26,5.2,16,5.3,16,13.1,15
2015/3/8 4:27,5,16,5.1,16,6.7,14
2015/3/8 4:28,5.1,16,5.2,16,10.9,15
2015/3/8 4:29,5,16,5.1,16,10.2,16
2015/3/8 4:30,5.2,16,5.2,16,11.1,15
2015/3/8 4:31,5.5,16,5.5,16,12.4,16
2015/3/8 4:32,5.6,16,5.7,16,11.9,16
2015/3/8 4:33,5.7,16,5.8,16,11.6,16
2015/3/8 4:34,5.9,16,5.9,16,9.9,16
2015/3/8 4:35,5.9,16,5.9,16,8.4,16
2015/3/8 4:36,5.6,16,5.9,16,9.8,16
2015/3/8 4:37,5.5,16,5.6,16,8.1,1
2015/3/8 4:38,5.2,16,5.5,16,9,16
2015/3/8 4:39,5.1,16,5.2,16,7.8,1
2015/3/8 4:40,5,16,5.1,16,10.7,15
2015/3/8 4:41,4.9,16,5,16,8.1,1
2015/3/8 4:42,4.4,16,4.8,16,6.9,15
2015/3/8 4:43,4.2,1,4.3,16,4.3,16
2015/3/8 4:44,3.8,1,4.2,16,5.1,2
2015/3/8 4:45,3.8,1,3.8,16,8.1,2
2015/3/8 4:46,3.8,1,3.8,16,8.7,16
2015/3/8 4:47,3.9,1,3.9,16,7.5,1
2015/3/8 4:48,4,1,4,16,9.3,2
2015/3/8 4:49,4.1,1,4.1,16,9,1
2015/3/8 4:50,4.2,1,4.2,16,11.8,16
2015/3/8 4:51,4.2,16,4.2,16,8.2,14
2015/3/8 4:52,4.2,16,4.2,16,6.7,15
2015/3/8 4:53,4.2,16,4.3,16,4.7,1
2015/3/8 4:54,4.3,16,4.3,16,6.7,16
2015/3/8 4:55,4.4,16,4.4,16,9.1,16
2015/3/8 4:56,4.5,16,4.5,16,11.5,16
2015/3/8 4:57,4.6,16,4.6,16,11.6,15
2015/3/8 4:58,4.3,16,4.6,16,4.9,15
2015/3/8 4:59,4.2,16,4.3,16,6.1,15
2015/3/8 5:00,4,16,4.3,16,7,15
2015/3/8 5:01,4.1,16,4.1,16,7.5,16
2015/3/8 5:02,4.1,16,4.1,16,6.7,13
2015/3/8 5:03,4.4,16,4.4,16,7.5,16
2015/3/8 5:04,4.6,16,4.6,16,8.1,15
2015/3/8 5:05,4.3,16,4.5,16,5.2,16
2015/3/8 5:06,4,16,4.3,16,7.5,15
2015/3/8 5:07,4.2,16,4.2,16,12.4,16
2015/3/8 5:08,4.6,16,4.6,16,10.9,16
2015/3/8 5:09,4.8,16,4.8,16,8.7,1
2015/3/8 5:10,4.5,16,4.7,16,5,16
2015/3/8 5:11,4.4,16,4.5,16,5.4,16
2015/3/8 5:12,4.2,16,4.3,16,8.5,16
2015/3/8 5:13,4,16,4.2,16,6,15
2015/3/8 5:14,4.1,16,4.1,16,10.5,16
2015/3/8 5:15,4.5,16,4.5,16,9.8,1
2015/3/8 5:16,4.6,16,4.6,16,7.8,16
2015/3/8 5:17,4.7,16,4.7,16,11,15
2015/3/8 5:18,4.5,16,4.7,16,9.8,15
2015/3/8 5:19,4.3,16,4.5,16,8.4,16
2015/3/8 5:20,4.6,16,4.6,16,7.7,2
2015/3/8 5:21,4.9,16,4.9,16,9.7,2
2015/3/8 5:22,5.3,16,5.3,16,13.2,16
2015/3/8 5:23,5.5,16,5.6,16,13.9,16
2015/3/8 5:24,5.6,16,5.6,16,9.7,1
2015/3/8 5:25,5.6,16,5.6,16,9.5,16
2015/3/8 5:26,5.8,16,5.8,16,10.1,15
2015/3/8 5:27,5.6,16,5.8,16,10.2,15
2015/3/8 5:28,5.6,16,5.7,16,9.4,16
2015/3/8 5:29,5.6,16,5.6,16,5.7,16
2015/3/8 5:30,5.6,16,5.6,16,8.9,15
2015/3/8 5:31,5.5,16,5.6,16,9.1,16
2015/3/8 5:32,5.4,16,5.5,16,10.3,16
2015/3/8 5:33,5.3,16,5.3,16,11.7,1
2015/3/8 5:34,5.4,16,5.4,16,10,1
2015/3/8 5:35,5.4,16,5.5,16,9.3,1
2015/3/8 5:36,5.5,16,5.5,16,12.6,16
2015/3/8 5:37,5.7,16,5.7,16,11.4,1
2015/3/8 5:38,5.6,16,5.6,16,7.6,14
2015/3/8 5:39,5.7,16,5.7,16,7,16
2015/3/8 5:40,5.7,16,5.8,16,9.3,16
2015/3/8 5:41,5.5,16,5.7,16,8.2,16
2015/3/8 5:42,5.4,1,5.6,16,8.5,15
2015/3/8 5:43,5.2,16,5.4,16,7.2,2
2015/3/8 5:44,5,16,5.2,16,9.2,16
2015/3/8 5:45,5,16,5,16,9.8,15
2015/3/8 5:46,5,16,5.1,16,9.2,16
2015/3/8 5:47,4.8,16,4.9,16,9.7,2
2015/3/8 5:48,4.6,16,4.8,16,6.9,15
2015/3/8 5:49,4.6,16,4.7,16,7.8,2
2015/3/8 5:50,4.7,16,4.7,16,8.6,15
2015/3/8 5:51,4.8,16,4.8,16,9.4,1
2015/3/8 5:52,4.8,16,4.9,16,8.5,1
2015/3/8 5:53,4.9,16,4.9,16,6.5,1
2015/3/8 5:54,4.8,16,4.9,16,5.6,16
2015/3/8 5:55,4.7,16,4.7,16,10.7,16
2015/3/8 5:56,4.7,16,4.7,16,9.8,1
2015/3/8 5:57,4.7,16,4.8,16,10.5,1
2015/3/8 5:58,4.9,16,5,16,10.9,1
2015/3/8 5:59,4.9,16,4.9,16,7,1
2015/3/8 6:00,4.8,16,4.9,16,5.7,16
2015/3/8 6:01,4.4,16,4.7,16,4.8,1
2015/3/8 6:02,4.5,16,4.5,16,11.5,1
2015/3/8 6:03,4.8,16,4.8,16,12.4,16
2015/3/8 6:04,5,16,5,16,8.6,16
2015/3/8 6:05,4.9,16,5,16,7.1,16
2015/3/8 6:06,4.8,16,4.9,16,7.8,16
2015/3/8 6:07,4.7,16,4.7,16,8.5,16
2015/3/8 6:08,4.6,16,4.7,16,9.1,16
2015/3/8 6:09,4.9,16,4.9,16,10.3,15
2015/3/8 6:10,5,16,5,16,6.9,1
2015/3/8 6:11,5.1,16,5.1,16,7.9,1
2015/3/8 6:12,5.2,16,5.3,16,10.9,15
2015/3/8 6:13,4.8,16,5.3,16,8.2,16
2015/3/8 6:14,5,16,5,16,12.6,16
2015/3/8 6:15,5.4,16,5.4,16,12.7,16
2015/3/8 6:16,5.2,16,5.5,16,7.7,2
2015/3/8 6:17,5.3,16,5.3,16,6.4,16
2015/3/8 6:18,5.1,16,5.2,16,4.7,15
2015/3/8 6:19,4.8,16,5,16,9,1
2015/3/8 6:20,4.9,16,4.9,16,8.6,1
2015/3/8 6:21,5,16,5,16,9.1,16
2015/3/8 6:22,5,16,5.1,16,10.1,16
2015/3/8 6:23,5.4,16,5.4,16,11.4,15
2015/3/8 6:24,5.1,16,5.4,16,8.2,2
2015/3/8 6:25,4.7,16,5.1,16,6,16
2015/3/8 6:26,4.6,16,4.7,16,6.2,14
2015/3/8 6:27,4.7,16,4.7,16,9.9,1
2015/3/8 6:28,4.8,16,4.8,16,8.7,1
2015/3/8 6:29,4.7,16,4.9,16,6.3,16
2015/3/8 6:30,4.8,16,4.8,16,10.5,16
2015/3/8 6:31,4.8,16,4.9,16,8.5,16
2015/3/8 6:32,4.5,16,4.8,16,9.7,16
2015/3/8 6:33,4.2,16,4.4,16,9.5,2
2015/3/8 6:34,4.1,16,4.1,16,8.7,16
2015/3/8 6:35,4.4,16,4.4,16,11,16
2015/3/8 6:36,4.6,16,4.6,16,7.5,16
2015/3/8 6:37,4.5,16,4.5,16,6.7,1
2015/3/8 6:38,4.5,16,4.5,16,7.5,15
2015/3/8 6:39,4.7,16,4.7,16,10.3,15
2015/3/8 6:40,4.6,16,4.8,16,8.4,2
2015/3/8 6:41,4.6,16,4.7,16,9.8,16
2015/3/8 6:42,4.9,16,4.9,16,9.4,16
2015/3/8 6:43,5.1,16,5.1,16,10,16
2015/3/8 6:44,5.3,16,5.4,16,11.4,16
2015/3/8 6:45,5.1,16,5.2,16,9.2,16
2015/3/8 6:46,5.2,16,5.2,16,7.9,16
2015/3/8 6:47,5.2,16,5.2,16,8.1,16
2015/3/8 6:48,5.2,16,5.3,16,7.2,16
2015/3/8 6:49,5.1,16,5.1,16,13.2,16
2015/3/8 6:50,5,16,5.1,16,6.9,15
2015/3/8 6:51,4.9,16,4.9,16,9.3,16
2015/3/8 6:52,4.9,16,5,16,13.5,16
2015/3/8 6:53,4.9,16,4.9,16,8.7,1
2015/3/8 6:54,4.8,16,4.9,16,9.4,15
2015/3/8 6:55,4.5,16,4.8,16,4.8,1
2015/3/8 6:56,4.3,1,4.5,16,5.1,16
2015/3/8 6:57,4.3,1,4.3,16,7,2
2015/3/8 6:58,4.1,1,4.3,16,6.2,16
2015/3/8 6:59,4,1,4.2,16,6.7,1
2015/3/8 7:00,4,1,4,16,6.5,2
2015/3/8 7:01,4.2,1,4.2,16,9.2,16
2015/3/8 7:02,4,1,4.1,16,8.2,1
2015/3/8 7:03,4.1,1,4.1,16,10.3,15
2015/3/8 7:04,3.9,1,4,16,6.7,15
2015/3/8 7:05,4.1,1,4.1,16,7.1,16
2015/3/8 7:06,4,1,4.1,1,4.7,2
2015/3/8 7:07,3.8,16,4,1,4.7,16
2015/3/8 7:08,4,1,4,1,7.9,1
2015/3/8 7:09,4,1,4.1,1,6.8,16
2015/3/8 7:10,4,16,4,1,6.7,15
2015/3/8 7:11,3.8,1,4,1,6.1,15
2015/3/8 7:12,3.7,1,3.7,1,7.8,1
2015/3/8 7:13,3.6,1,3.7,1,7.9,1
2015/3/8 7:14,3.5,1,3.6,1,4.3,1
2015/3/8 7:15,3.3,1,3.4,1,4.8,1
2015/3/8 7:16,3.4,1,3.4,1,3.7,4
2015/3/8 7:17,3.5,1,3.6,1,5.2,4
2015/3/8 7:18,3.3,1,3.5,1,2.9,2
2015/3/8 7:19,3,1,3.3,1,1.1,1
2015/3/8 7:20,2.8,1,3,16,2.7,1
2015/3/8 7:21,2.8,1,2.9,1,5.1,1
2015/3/8 7:22,2.7,2,2.8,1,7.6,16
2015/3/8 7:23,2.6,1,2.7,1,7.5,16
2015/3/8 7:24,2.4,2,2.5,1,3.5,16
2015/3/8 7:25,2.4,2,2.4,1,6.7,1
2015/3/8 7:26,2.4,1,2.4,1,5.2,15
2015/3/8 7:27,2.4,1,2.4,1,5.7,15
2015/3/8 7:28,2.6,1,2.6,1,6.5,2
2015/3/8 7:29,2.9,1,2.9,1,6,1
2015/3/8 7:30,2.9,1,2.9,1,3.7,1
2015/3/8 7:31,2.7,1,2.9,1,2.7,1
2015/3/8 7:32,2.8,1,2.8,1,9.9,1
2015/3/8 7:33,2.7,1,2.8,1,6.4,16
2015/3/8 7:34,2.9,1,2.9,1,5.8,16
2015/3/8 7:35,2.8,1,3,1,3.9,2
2015/3/8 7:36,2.8,1,2.9,1,6.5,16
2015/3/8 7:37,2.8,1,2.9,1,6.1,1
2015/3/8 7:38,2.8,1,2.8,1,7.6,1
2015/3/8 7:39,3,1,3,1,7.7,1
2015/3/8 7:40,3.1,1,3.1,1,5.5,15
2015/3/8 7:41,3.3,16,3.3,1,6.9,16
2015/3/8 7:42,3.4,16,3.4,16,7.9,2
2015/3/8 7:43,3.5,16,3.5,1,7.4,16
2015/3/8 7:44,3.6,16,3.6,16,6.2,1
2015/3/8 7:45,3.7,16,3.7,16,5.1,16
2015/3/8 7:46,3.7,16,3.8,16,5.2,16
2015/3/8 7:47,3.8,16,3.8,16,4.7,1
2015/3/8 7:48,3.7,16,3.8,16,4.2,2
2015/3/8 7:49,3.7,16,3.7,16,7.4,1
2015/3/8 7:50,3.7,16,3.7,16,6.9,2
2015/3/8 7:51,3.8,1,3.8,16,8.2,1
2015/3/8 7:52,3.9,16,4,16,7.9,16
2015/3/8 7:53,3.8,16,3.9,16,6,16
2015/3/8 7:54,3.9,16,3.9,16,6.3,1
2015/3/8 7:55,3.8,1,3.9,16,5.2,2
2015/3/8 7:56,3.8,1,3.8,16,4.5,2
2015/3/8 7:57,3.7,1,3.8,16,5.2,15
2015/3/8 7:58,3.8,1,3.8,16,7.6,2
2015/3/8 7:59,3.7,16,3.8,16,7.8,2
2015/3/8 8:00,3.7,16,3.7,16,6.4,15
2015/3/8 8:01,3.7,1,3.7,16,7.5,1
2015/3/8 8:02,3.5,1,3.7,16,6.7,16
2015/3/8 8:03,3.6,1,3.6,16,6.4,15
2015/3/8 8:04,3.5,1,3.6,16,5.6,16
2015/3/8 8:05,3.5,1,3.5,1,5.8,3
2015/3/8 8:06,3.7,1,3.7,1,7.2,15
2015/3/8 8:07,3.7,1,3.7,1,7.1,15
2015/3/8 8:08,3.9,16,4,16,9.8,1
2015/3/8 8:09,4,16,4,16,7,15
2015/3/8 8:10,4,16,4,16,6.8,15
2015/3/8 8:11,3.9,16,4,16,7.5,16
2015/3/8 8:12,3.9,16,4,16,8.1,1
2015/3/8 8:13,3.8,16,3.9,16,5.6,16
2015/3/8 8:14,3.8,16,3.9,16,6.2,1
2015/3/8 8:15,3.8,1,3.9,16,4.9,3
2015/3/8 8:16,3.9,1,3.9,16,9,1
2015/3/8 8:17,3.9,1,4,16,8.5,1
2015/3/8 8:18,3.7,1,3.9,16,4.8,2
2015/3/8 8:19,3.6,1,3.6,16,5.2,2
2015/3/8 8:20,3.5,1,3.6,16,5.2,15
2015/3/8 8:21,3.4,1,3.5,16,5.5,16
2015/3/8 8:22,3.3,1,3.4,1,6.1,16
2015/3/8 8:23,3.3,1,3.4,1,5,1
2015/3/8 8:24,3.4,1,3.4,1,7.1,1
2015/3/8 8:25,3.3,1,3.4,1,3.8,2
2015/3/8 8:26,3,1,3.3,1,4.1,3
2015/3/8 8:27,2.7,1,2.9,1,2.7,2
2015/3/8 8:28,2.7,1,2.8,1,3.5,2
2015/3/8 8:29,2.6,1,2.7,1,6.1,2
2015/3/8 8:30,2.6,1,2.7,1,5.4,1
2015/3/8 8:31,2.5,1,2.6,1,3.8,16
2015/3/8 8:32,2.6,1,2.6,1,7.7,16
2015/3/8 8:33,2.5,1,2.6,1,5.1,16
2015/3/8 8:34,2.4,1,2.4,1,5.7,1
2015/3/8 8:35,2.6,1,2.6,1,7.9,16
2015/3/8 8:36,2.6,1,2.6,1,4.4,1
2015/3/8 8:37,2.7,1,2.7,1,4.7,16
2015/3/8 8:38,2.6,1,2.7,1,3.8,2
2015/3/8 8:39,2.6,1,2.6,1,4.3,1
2015/3/8 8:40,2.6,1,2.6,1,5.2,1
2015/3/8 8:41,2.8,1,2.8,1,4.4,2
2015/3/8 8:42,2.6,2,2.7,1,4.2,2
2015/3/8 8:43,2.7,2,2.7,1,5,3
2015/3/8 8:44,2.7,2,2.7,1,4.8,1
2015/3/8 8:45,2.8,2,2.8,1,8.1,15
2015/3/8 8:46,3.1,1,3.1,1,6.4,1
2015/3/8 8:47,3.3,1,3.3,1,8.4,15
2015/3/8 8:48,3.4,1,3.4,1,7.1,1
2015/3/8 8:49,3.6,1,3.6,1,7.5,1
2015/3/8 8:50,3.9,1,3.9,1,9.8,16
2015/3/8 8:51,4,1,4,1,8.2,15
2015/3/8 8:52,4.4,1,4.4,1,9.5,16
2015/3/8 8:53,4.6,16,4.6,16,10.5,16
2015/3/8 8:54,4.9,16,4.9,16,10.6,16
2015/3/8 8:55,4.7,16,4.9,16,5.2,15
2015/3/8 8:56,4.4,16,4.6,16,5.1,15
2015/3/8 8:57,4.2,16,4.4,16,4.4,16
2015/3/8 8:58,4.2,16,4.2,16,5.1,3
2015/3/8 8:59,4,16,4.1,16,4.2,2
2015/3/8 9:00,3.7,16,3.9,16,5.6,16
2015/3/8 9:01,3.7,16,3.8,16,7.2,15
2015/3/8 9:02,3.6,16,3.7,16,8.2,15
2015/3/8 9:03,3.5,16,3.6,16,7.9,16
2015/3/8 9:04,3.2,16,3.4,16,5.8,1
2015/3/8 9:05,3.3,16,3.3,16,5.7,1
2015/3/8 9:06,3.4,16,3.4,16,5.7,2
2015/3/8 9:07,3.4,1,3.4,16,5,2
2015/3/8 9:08,3.5,1,3.5,16,7,2
2015/3/8 9:09,3.7,1,3.7,16,6.4,1
2015/3/8 9:10,3.7,1,3.7,16,4.1,1
2015/3/8 9:11,3.7,1,3.7,16,8.5,2
2015/3/8 9:12,3.7,2,3.8,1,7,1
2015/3/8 9:13,3.7,2,3.7,1,6,3
2015/3/8 9:14,3.8,2,3.8,1,5.5,3
2015/3/8 9:15,3.8,2,3.8,1,7.2,2
2015/3/8 9:16,3.6,2,3.8,1,3.6,4
2015/3/8 9:17,3.8,2,3.8,1,8.3,2
2015/3/8 9:18,3.8,2,3.9,2,6.7,3
2015/3/8 9:19,3.7,2,3.8,2,5.5,2
2015/3/8 9:20,3.9,2,3.9,2,9.8,16
2015/3/8 9:21,3.7,2,3.9,2,8.4,15
2015/3/8 9:22,3.6,2,3.6,2,6.9,15
2015/3/8 9:23,3.4,2,3.6,2,6.1,1
2015/3/8 9:24,3.5,2,3.5,2,7.7,1
2015/3/8 9:25,3.8,1,3.8,2,9.8,1
2015/3/8 9:26,4,1,4,1,6.5,2
2015/3/8 9:27,3.9,1,4,1,6.4,1
2015/3/8 9:28,3.8,1,3.9,1,6.2,1
2015/3/8 9:29,3.8,1,3.8,1,6.3,2
2015/3/8 9:30,3.6,1,3.8,1,5.4,15
2015/3/8 9:31,3.6,1,3.6,1,4.5,16
2015/3/8 9:32,3.5,1,3.7,1,3.2,2
2015/3/8 9:33,3.4,1,3.5,1,3,1
2015/3/8 9:34,3.1,1,3.4,1,2,15
2015/3/8 9:35,2.7,1,3,1,4.7,16
2015/3/8 9:36,2.3,1,2.6,1,4.5,2
2015/3/8 9:37,2.5,1,2.5,1,7.7,1
2015/3/8 9:38,2.7,16,2.7,1,8.3,14
2015/3/8 9:39,2.8,16,2.8,1,6.9,16
2015/3/8 9:40,2.8,16,2.8,1,6.9,15
2015/3/8 9:41,2.8,16,2.8,1,4.9,15
2015/3/8 9:42,2.9,16,2.9,1,5,16
2015/3/8 9:43,3.1,16,3.1,1,4.7,1
2015/3/8 9:44,3.2,16,3.2,16,4.1,2
2015/3/8 9:45,3.2,16,3.2,16,3.9,2
2015/3/8 9:46,3.4,16,3.5,16,5.5,15
2015/3/8 9:47,3.3,16,3.4,16,5.6,15
2015/3/8 9:48,3.1,16,3.2,16,5.7,14
2015/3/8 9:49,2.9,16,3.1,16,4.2,3
2015/3/8 9:50,2.8,1,2.9,16,5,2
2015/3/8 9:51,2.8,1,2.8,16,4.4,2
2015/3/8 9:52,2.9,1,2.9,16,5.1,2
2015/3/8 9:53,2.9,1,2.9,16,6,2
2015/3/8 9:54,3,1,3,16,3.9,2
2015/3/8 9:55,3,2,3,16,3.8,3
2015/3/8 9:56,2.9,2,2.9,16,3.2,4
2015/3/8 9:57,2.7,2,2.9,16,1.6,4
2015/3/8 9:58,2.5,3,2.6,16,3,4
2015/3/8 9:59,2.4,3,2.5,1,2.4,3
2015/3/8 10:00,2.2,3,2.4,1,1.5,1
2015/3/8 10:01,2,4,2.2,1,2.4,5
2015/3/8 10:02,2,4,2,1,5.2,3
2015/3/8 10:03,2.1,4,2.1,1,6.2,4
2015/3/8 10:04,2.1,4,2.1,1,5.1,3
2015/3/8 10:05,2.3,4,2.3,2,5.2,3
2015/3/8 10:06,2.4,4,2.4,2,4.3,3
2015/3/8 10:07,2.6,4,2.6,3,4.4,3
2015/3/8 10:08,2.6,4,2.6,4,3.5,3
2015/3/8 10:09,2.7,3,2.7,3,4.4,2
2015/3/8 10:10,2.9,3,2.9,3,3.2,3
2015/3/8 10:11,3,3,3,3,3.7,1
2015/3/8 10:12,3,3,3,3,5.1,2
2015/3/8 10:13,2.8,2,3,3,5.2,2
2015/3/8 10:14,2.9,2,3,3,6.2,1
2015/3/8 10:15,2.8,2,2.9,3,4.8,2
2015/3/8 10:16,2.7,2,2.8,3,3.6,2
2015/3/8 10:17,2.5,2,2.7,3,2.6,5
2015/3/8 10:18,2.4,2,2.5,3,2.5,3
2015/3/8 10:19,2.3,2,2.4,3,3.5,15
2015/3/8 10:20,2.3,2,2.3,3,4.7,3
2015/3/8 10:21,2.4,2,2.4,3,4.5,3
2015/3/8 10:22,2.3,2,2.4,3,4.3,2
2015/3/8 10:23,2.3,2,2.3,2,3.9,1
2015/3/8 10:24,2,2,2.2,2,2.1,2
2015/3/8 10:25,1.8,2,2,2,1.4,16
2015/3/8 10:26,1.6,2,1.8,2,2.7,16
2015/3/8 10:27,1.8,2,1.8,2,6.1,3
2015/3/8 10:28,2,2,2,2,4.7,2
2015/3/8 10:29,2.1,2,2.1,2,5.2,3
2015/3/8 10:30,2.2,2,2.2,2,3.7,16
2015/3/8 10:31,2.1,2,2.2,2,4.5,2
2015/3/8 10:32,2,2,2.1,2,2.5,2
2015/3/8 10:33,1.8,2,2,2,1.5,2
2015/3/8 10:34,1.8,2,1.8,2,1.8,7
2015/3/8 10:35,1.9,3,1.9,2,2.4,8
2015/3/8 10:36,1.9,3,1.9,2,2.1,12
2015/3/8 10:37,1.8,3,1.9,2,3.6,9
2015/3/8 10:38,1.6,4,1.8,2,1.4,6
2015/3/8 10:39,1.3,4,1.5,2,2,10
2015/3/8 10:40,1.2,7,1.3,2,1.8,14
2015/3/8 10:41,1.1,9,1.2,2,3.7,9
2015/3/8 10:42,1,9,1,2,2.6,10
2015/3/8 10:43,1,10,1,3,2,7
2015/3/8 10:44,1.1,10,1.1,3,2.9,9
2015/3/8 10:45,1,10,1,3,1.1,11
2015/3/8 10:46,1,10,1,3,1.5,8
2015/3/8 10:47,1,10,1,3,2.4,8
2015/3/8 10:48,1,10,1,4,2.9,8
2015/3/8 10:49,1.1,10,1.1,5,3,8
2015/3/8 10:50,1.1,10,1.1,7,1.8,13
2015/3/8 10:51,1.1,10,1.2,10,1.3,12
2015/3/8 10:52,1.1,10,1.1,10,3,8
2015/3/8 10:53,1.2,9,1.2,10,3.2,8
2015/3/8 10:54,1.2,9,1.2,10,1.9,8
2015/3/8 10:55,1.2,9,1.2,10,1.8,6
2015/3/8 10:56,1.3,8,1.3,8,2.9,8
2015/3/8 10:57,1.3,8,1.3,8,2.6,2
2015/3/8 10:58,1.4,7,1.4,7,3.2,3
2015/3/8 10:59,1.4,6,1.4,7,3.3,2
2015/3/8 11:00,1.5,5,1.5,6,2.9,15
2015/3/8 11:01,1.6,5,1.6,5,2.6,16
2015/3/8 11:02,1.6,4,1.7,5,3.8,16
2015/3/8 11:03,1.5,3,1.6,5,2.6,11
2015/3/8 11:04,1.6,3,1.6,5,3,6
2015/3/8 11:05,1.7,3,1.7,5,3.2,6
2015/3/8 11:06,1.7,3,1.7,5,2.5,5
2015/3/8 11:07,1.7,3,1.7,5,2.4,5
2015/3/8 11:08,1.6,4,1.7,5,2.5,5
2015/3/8 11:09,1.4,5,1.6,5,1.6,5
2015/3/8 11:10,1.4,5,1.4,5,3,1
2015/3/8 11:11,1.5,5,1.5,5,3.9,5
2015/3/8 11:12,1.6,6,1.6,3,4.7,5
2015/3/8 11:13,1.9,5,1.9,5,5,5
2015/3/8 11:14,2,5,2,5,3.1,5
2015/3/8 11:15,1.9,5,1.9,5,3,6
2015/3/8 11:16,1.9,5,1.9,5,2.7,8
2015/3/8 11:17,2,5,2,5,3.7,6
2015/3/8 11:18,2,5,2,5,3.1,8
2015/3/8 11:19,2.2,5,2.2,5,4.1,7
2015/3/8 11:20,2.3,5,2.3,5,3,5
2015/3/8 11:21,2.1,5,2.2,5,1.8,6
2015/3/8 11:22,1.9,5,2.1,5,2.7,1
2015/3/8 11:23,1.8,5,1.9,5,4.1,3
2015/3/8 11:24,2,4,2,5,7.7,16
2015/3/8 11:25,2.1,4,2.1,5,5.8,2
2015/3/8 11:26,2.2,3,2.2,5,4.1,1
2015/3/8 11:27,2.1,3,2.2,5,2.7,16
2015/3/8 11:28,2.1,2,2.1,5,2.6,16
2015/3/8 11:29,2.1,2,2.1,5,3.7,1
2015/3/8 11:30,2.1,1,2.1,5,3.3,1
2015/3/8 11:31,2.2,1,2.2,4,5.6,2
2015/3/8 11:32,2.4,1,2.4,1,4.5,1
2015/3/8 11:33,2.5,1,2.5,1,3.5,16